Weather Roundup
Issued by NWS Corpus Christi, TX

Home | Current Version | Previous Version | Text Only | Print | Product List | Glossary On
Versions: 1 2 3 4 5 6 7 8 9 10 11 12 13 14 15 16 17 18 19 20 21 22 23 24 25 26 27 28 29 30 31 32 33 34 35 36 37 38 39 40 41 42 43 44 45 46 47 48 49 50
000
ASUS44 KCRP 231410
HRRCRP

SOUTH TEXAS REGIONAL WEATHER ROUNDUP
NATIONAL WEATHER SERVICE CORPUS CHRISTI TX
900 AM CDT TUE SEP 23 2014


TXZ229>244-231500-
...CORPUS CHRISTI AREA OBSERVATIONS...

CITY           SKY/WX    TMP DP  RH WIND       PRES   REMARKS
CORPUS CHRISTI PTSUNNY   78  72  81 NE10      30.06R
NAS CORPUS CHR PTSUNNY   80  76  87 NE15      30.05R
ROCKPORT       SUNNY     78  70  76 NE12      30.07R
KINGSVILLE NAS PTSUNNY   76  75  97 N8        30.07R
ALICE          CLOUDY    77  72  84 NE8       30.07R
FALFURRIAS     MOSUNNY  N/A N/A N/A N5        30.06R
$$

...VICTORIA AREA OBSERVATIONS...

CITY           SKY/WX    TMP DP  RH WIND       PRES   REMARKS
VICTORIA       SUNNY     73  64  73 NE10      30.10R
BEEVILLE       CLOUDY    74  70  85 NE8       30.09R
PLEASANTON     PTSUNNY   76  65  70 E8        30.12R
SAN ANTONIO    PTSUNNY   74  63  68 E8        30.14R
$$

...LAREDO AREA OBSERVATIONS...

CITY           SKY/WX    TMP DP  RH WIND       PRES   REMARKS
LAREDO         PTSUNNY   75  69  81 CALM      30.12R
COTULLA        CLOUDY    76  69  79 E3        30.10R
DEL RIO        PTSUNNY   78  65  63 E9        30.10R
MCALLEN        SUNNY     77  72  84 N7        30.06R
HEBBRONVILLE     N/A     73  70  91 CALM      30.11R
$$

...OTHER TEXAS OBSERVATIONS...

CITY           SKY/WX    TMP DP  RH WIND       PRES   REMARKS
BROWNSVILLE    MOSUNNY   78  74  87 N5        30.03R
HOUSTON        MOSUNNY   68  56  65 NE12      30.13R
COL. STATION   SUNNY     67  57  70 E9        30.15R
AUSTIN         MOSUNNY   69  59  70 NE8       30.15R
WACO           SUNNY     66  55  67 NE6       30.19R
FORT WORTH     PTSUNNY   67  53  61 E7        30.19R
WICHITA FALLS  MOSUNNY   64  54  69 SE7       30.20R
LUBBOCK        PTSUNNY   64  60  87 SE10      30.20S
EL PASO        PTSUNNY   68  63  84 CALM      30.19R
$$

...MARINE OBSERVATIONS...

STATION/POSITION TIME  SKY/WX   TEMP    WIND        PRES    VSBY  WAVE   SWELL
                                AIR SEA DIR/SP/G                  HT/PER HT/PER
                 (UTC)          (F)     (DEG/KT/KT) (MB)    (MI)  (FT/S) (FT/S)
PORT ARANSAS     1400            82 83   50/ 17/ 18 1018.1R
BUOY 90 E PORT A 1400            82 84   50/ 14/ 16 1017.4R         5/ 6   3/ 7
BUOY 45 SE BAFFI 1400            83 84   70/ 19/ 21 1015.6R         4/ 6
BUOY 200 E PT IS 1400            84 84   60/ 14/ 17 1015.3R         4/ 7   2/ 7
BUOY 15 E GALVES 1400            76 83   60/ 17/ 21 1017.8R         4/ 5
$$


USA.gov is the U.S. government's official web portal to all federal, state and local government web resources and services.